[[{"header":{"parameterUnit":"m.s-1","parameterCategory":1,"la1":30.2991,"la2":30.254,"lo1":-89.0895,"lo2":-89.0444,"dy":0.0017,"dx":0.0017,"nx":28,"ny":28,"refTime":"2023-08-16T21:00:00:Z","depth":0,"parameterNumber":2,"parameterNumberName":"U-component_of_WINDS"},"data":[0,0,0,0,0,0,0,0,0,0,0,0,0,0,0,0,0,0,0,0,0,0,0,0,0,0,0,0,0,0,0,0,0,0,0,0,0,0,0,0,0,0,0,0,0,0,0,0,0,0,0,0,0,0,0,0,0,0,0.1786,0.1785,0,0.1631,0.1629,0.1627,0.1569,0.1569,0.157,0.157,0.1408,0.1403,0.1398,0,0,0,0,0,0,0,0,0,0,0,0,0,0.2032,0.2028,0.1787,0.1785,0.1783,0.1631,0.1629,0.1627,0.1569,0.1569,0.157,0.1571,0.1409,0.1404,0.1398,0,0,0,0,0,0,0,0,0,0,0,0,0,0.1906,0.2026,0.1787,0.1736,0.1729,0.1632,0.1629,0.1626,0.1569,0.1569,0.157,0.1571,0.1411,0.1404,0.1397,0.1338,0,0,0.1375,0.1372,0,0,0,0,0,0,0,0,0.1913,0.1897,0.1745,0.1739,0.1732,0.162,0.1656,0.1529,0.1569,0.163,0.157,0.1571,0.1478,0.1465,0.1434,0.133,0.1323,0.1374,0.137,0.1367,0.1365,0,0,0,0,0,0,0,0.1922,0.1903,0.1725,0.1743,0.1735,0.172,0.1703,0.1632,0.1551,0.1624,0.162,0.1602,0.1474,0.1441,0.143,0.1321,0.1375,0.1368,0.1364,0.1361,0.1163,0.1162,0,0,0,0,0,0,0.1939,0.1911,0.173,0.172,0.1826,0.1715,0.1696,0.1655,0.1552,0.1537,0.1602,0.16,0.1453,0.1438,0.1424,0.1349,0.1367,0.136,0.1356,0.1163,0.1162,0.1161,0,0,0,0,0,0,0.1945,0.1924,0.1736,0.1814,0.1789,0.171,0.1665,0.1652,0.1619,0.1535,0.152,0.1583,0.1453,0.1434,0.136,0.1342,0.1357,0.1351,0.1165,0.1163,0.1162,0.1198,0,0,0,0,0,0,0.1952,0.1926,0.1903,0.1814,0.1785,0.1676,0.1664,0.1648,0.1607,0.1603,0.1513,0.1499,0.1452,0.1371,0.1353,0.1333,0.1345,0.1166,0.1164,0.1162,0.1198,0.1198,0.1198,0,0,0,0,0,0.1961,0.1918,0.1902,0.1881,0.1755,0.1675,0.1658,0.1606,0.1606,0.1582,0.1528,0.1502,0.1348,0.1364,0.1343,0.132,0.1167,0.1165,0.1162,0.1198,0.1198,0.1198,0,0,0,0,0,0,0.2005,0.1905,0.1887,0.1814,0.1754,0.1665,0.1633,0.1607,0.1545,0.1544,0.1481,0.1461,0.1393,0.1349,0.137,0.1259,0.1255,0.1249,0.129,0.1289,0.1289,0.1301,0.1339,0,0,0,0,0,0.2007,0.1951,0.1866,0.181,0.1781,0.1713,0.1676,0.1641,0.1576,0.1549,0.149,0.1427,0.1364,0.1324,0.1262,0.1192,0.1172,0.1166,0.1166,0.1166,0.1161,0.1122,0.1119,0.1154,0.1154,0.1154,0,0,0.2009,0.1947,0.1916,0.1818,0.1767,0.171,0.1691,0.1632,0.1589,0.154,0.1467,0.1422,0.1347,0.1276,0.1241,0.1237,0.1147,0.1163,0.1164,0.1159,0.112,0.1117,0.1114,0.1153,0.1153,0.1153,0,0,0.1983,0.1931,0.188,0.183,0.1754,0.1709,0.1697,0.1613,0.1582,0.1508,0.1471,0.1419,0.1312,0.1261,0.122,0.1179,0.1153,0.116,0.116,0.1123,0.112,0.1117,0.1103,0.1099,0.1156,0.1156,0.1156,0,0.1995,0.1909,0.1856,0.1799,0.1758,0.1713,0.166,0.1614,0.1521,0.1493,0.149,0.1357,0.1303,0.122,0.121,0.1179,0.1163,0.117,0.1125,0.1122,0.1118,0.1104,0.1099,0.1157,0.1157,0.1157,0.1157,0,0.1928,0.1869,0.1836,0.175,0.1704,0.165,0.1589,0.1549,0.1519,0.1475,0.1401,0.1336,0.126,0.1238,0.1207,0.1151,0.1151,0.1137,0.1133,0.1117,0.1103,0.1097,0.1159,0.1159,0.1158,0.1158,0,0,0.1924,0.1811,0.18,0.1761,0.1675,0.1628,0.1572,0.15,0.1468,0.1406,0.1357,0.1269,0.1257,0.1212,0.1175,0.1142,0.1115,0.1133,0.113,0.1132,0.105,0.1061,0.1056,0.1098,0.1096,0.1095,0.1057,0,0.1888,0.1787,0.1739,0.1659,0.1604,0.1562,0.1513,0.1455,0.1413,0.136,0.1312,0.1251,0.1239,0.1212,0.1178,0.1126,0.1098,0.1128,0.1052,0.105,0.1072,0.1048,0.1058,0.1025,0.1051,0.105,0.1049,0,0.1832,0.1772,0.1687,0.161,0.1585,0.1542,0.1473,0.1423,0.1357,0.1328,0.128,0.1244,0.1184,0.1185,0.11,0.1122,0.1088,0.1058,0.1056,0.1046,0.1048,0.1038,0.1013,0.1008,0.1039,0.104,0.1041,0,0.1839,0.1737,0.1674,0.1642,0.1549,0.1521,0.1481,0.1415,0.1376,0.1315,0.1289,0.1221,0.1184,0.1133,0.1081,0.1086,0.1002,0.0998,0.0977,0.0978,0.096,0.0962,0.093,0.0939,0.0939,0.0939,0.0939,0,0.1803,0.1753,0.1676,0.1637,0.158,0.1525,0.147,0.1427,0.137,0.1321,0.128,0.1236,0.1169,0.1117,0.1075,0.1013,0.0996,0.0971,0.0961,0.0975,0.0978,0.0951,0.0952,0.0938,0.0938,0.0938,0.0938,0,0.1801,0.1747,0.1676,0.1595,0.1574,0.1536,0.1466,0.1427,0.1384,0.1323,0.1306,0.1237,0.1173,0.1116,0.103,0.1003,0.0939,0.0926,0.0962,0.0956,0.0938,0.0941,0.0887,0.0878,0.0894,0.0894,0.0894,0,0.1782,0.1743,0.1659,0.1625,0.1586,0.1531,0.1491,0.1436,0.1396,0.1319,0.1289,0.1223,0.1166,0.1066,0.1008,0.0943,0.0928,0.0914,0.0917,0.0934,0.0928,0.0931,0.0927,0.0914,0.0914,0.0914,0.0914,0,0.1755,0.1731,0.1675,0.1611,0.1565,0.1511,0.1456,0.143,0.1365,0.1322,0.1257,0.1214,0.1128,0.1062,0.0991,0.0949,0.0921,0.0914,0.0905,0.0919,0.0942,0.093,0.0963,0.0915,0.0915,0.0915,0.0915,0.0915,0.1743,0.1707,0.1644,0.1584,0.1537,0.1487,0.1447,0.14,0.1345,0.1272,0.1242,0.1177,0.1112,0.1014,0.0973,0.092,0.0915,0.0903,0.09,0.0898,0.0901,0.0951,0.0907,0.0907,0.0907,0.0907,0.0907,0,0.1714,0.1672,0.1617,0.1543,0.1496,0.1475,0.1414,0.1376,0.1319,0.1262,0.1209,0.1135,0.1072,0.101,0.0943,0.0913,0.0898,0.0897,0.0899,0.089,0.0909,0.0923,0.091,0.091,0.091,0.0911,0.0911,0.0911,0.1694,0.1632,0.1601,0.1516,0.1473,0.141,0.1377,0.1331,0.1286,0.1205,0.1153,0.1114,0.1055,0.0985,0.0926,0.0909,0.0887,0.089,0.087,0.0888,0.0888,0.0889,0.0902,0.0885,0.0885,0.0855,0.0855,0.0855]},{"header":{"parameterUnit":"m.s-1","parameterCategory":1,"la1":30.2991,"la2":30.254,"lo1":-89.0895,"lo2":-89.0444,"dy":0.0017,"dx":0.0017,"nx":28,"ny":28,"refTime":"2023-08-16T21:00:00:Z","depth":0,"parameterNumber":3,"parameterNumberName":"V-component_of_WINDS"},"data":[0,0,0,0,0,0,0,0,0,0,0,0,0,0,0,0,0,0,0,0,0,0,0,0,0,0,0,0,0,0,0,0,0,0,0,0,0,0,0,0,0,0,0,0,0,0,0,0,0,0,0,0,0,0,0,0,0,0,-0.068,-0.068,0,-0.0689,-0.0689,-0.0689,-0.0645,-0.0643,-0.0642,-0.0641,-0.0648,-0.065,-0.0651,0,0,0,0,0,0,0,0,0,0,0,0,0,-0.0624,-0.0625,-0.068,-0.068,-0.068,-0.0689,-0.0689,-0.0689,-0.0645,-0.0643,-0.0642,-0.064,-0.0648,-0.065,-0.0651,0,0,0,0,0,0,0,0,0,0,0,0,0,-0.0642,-0.0626,-0.068,-0.0659,-0.0658,-0.0689,-0.0689,-0.0689,-0.0645,-0.0643,-0.0641,-0.0639,-0.0647,-0.0649,-0.0652,-0.0703,0,0,-0.0658,-0.0659,0,0,0,0,0,0,0,0,-0.0641,-0.0644,-0.0662,-0.0661,-0.0659,-0.0664,-0.0672,-0.0694,-0.0646,-0.065,-0.0641,-0.0638,-0.0655,-0.0656,-0.0662,-0.0703,-0.0704,-0.0658,-0.0659,-0.066,-0.0661,0,0,0,0,0,0,0,-0.064,-0.0644,-0.0684,-0.0663,-0.0661,-0.0649,-0.065,-0.0676,-0.0663,-0.0649,-0.0646,-0.0648,-0.0654,-0.066,-0.0662,-0.0704,-0.0658,-0.066,-0.0661,-0.0662,-0.0788,-0.079,0,0,0,0,0,0,-0.0642,-0.0643,-0.0683,-0.0684,-0.0645,-0.0652,-0.0652,-0.0664,-0.0663,-0.0661,-0.0649,-0.0646,-0.0658,-0.066,-0.0662,-0.0723,-0.066,-0.0662,-0.0663,-0.0786,-0.0789,-0.0791,0,0,0,0,0,0,-0.0641,-0.0646,-0.0683,-0.0663,-0.0666,-0.0655,-0.0668,-0.0665,-0.0672,-0.0663,-0.066,-0.0659,-0.0656,-0.0659,-0.0693,-0.0723,-0.0663,-0.0665,-0.0784,-0.0787,-0.079,-0.0845,0,0,0,0,0,0,-0.0639,-0.0646,-0.0665,-0.0663,-0.0668,-0.0715,-0.067,-0.0667,-0.0676,-0.0671,-0.0671,-0.0669,-0.0655,-0.0691,-0.0696,-0.0725,-0.0667,-0.0781,-0.0785,-0.0789,-0.0841,-0.085,-0.0858,0,0,0,0,0,-0.0638,-0.068,-0.0667,-0.0672,-0.0692,-0.0716,-0.0719,-0.0702,-0.0678,-0.0698,-0.0692,-0.0669,-0.0719,-0.0694,-0.07,-0.073,-0.0779,-0.0784,-0.0789,-0.0837,-0.0848,-0.0858,0,0,0,0,0,0,-0.0685,-0.0679,-0.0664,-0.0708,-0.0713,-0.0709,-0.0733,-0.0715,-0.0726,-0.0721,-0.07,-0.07,-0.0739,-0.0737,-0.0711,-0.078,-0.0745,-0.0751,-0.078,-0.079,-0.0798,-0.0798,-0.0668,0,0,0,0,0,-0.0701,-0.0721,-0.0715,-0.0754,-0.0757,-0.0745,-0.0755,-0.0742,-0.0746,-0.0748,-0.0745,-0.075,-0.0766,-0.0778,-0.0793,-0.084,-0.084,-0.0863,-0.0872,-0.0879,-0.0885,-0.091,-0.0921,-0.0807,-0.0807,-0.0807,0,0,-0.0733,-0.0732,-0.0746,-0.0763,-0.0766,-0.0788,-0.0747,-0.0771,-0.0787,-0.0751,-0.0784,-0.0782,-0.0786,-0.0828,-0.0845,-0.0828,-0.0916,-0.0885,-0.0891,-0.0892,-0.0916,-0.0927,-0.0937,-0.081,-0.0809,-0.0809,0,0,-0.0803,-0.0804,-0.0837,-0.0841,-0.0846,-0.0837,-0.0846,-0.0844,-0.0842,-0.0874,-0.0848,-0.0867,-0.0896,-0.09,-0.0906,-0.0979,-0.0958,-0.0984,-0.1029,-0.1054,-0.1063,-0.1071,-0.1098,-0.1108,-0.099,-0.099,-0.099,0,-0.0842,-0.0875,-0.0856,-0.0883,-0.0892,-0.0861,-0.0894,-0.0898,-0.0908,-0.0914,-0.0894,-0.0931,-0.0931,-0.0974,-0.0992,-0.0997,-0.1006,-0.0985,-0.1064,-0.1071,-0.1078,-0.1104,-0.1114,-0.0993,-0.0993,-0.0992,-0.0992,0,-0.0923,-0.0946,-0.0972,-0.0983,-0.0994,-0.1024,-0.101,-0.1024,-0.101,-0.1004,-0.1037,-0.1037,-0.1052,-0.1061,-0.1047,-0.1101,-0.109,-0.1067,-0.1032,-0.1093,-0.1117,-0.1126,-0.0998,-0.0997,-0.0996,-0.0995,0,0,-0.1024,-0.1025,-0.1035,-0.104,-0.1043,-0.106,-0.1089,-0.1104,-0.1116,-0.1124,-0.1147,-0.1173,-0.1152,-0.1159,-0.1145,-0.1168,-0.1227,-0.1142,-0.1142,-0.1159,-0.1288,-0.1307,-0.1318,-0.1213,-0.1214,-0.1216,-0.1288,0,-0.1094,-0.1144,-0.1128,-0.1178,-0.12,-0.1171,-0.1196,-0.12,-0.1195,-0.1212,-0.1206,-0.1226,-0.1196,-0.12,-0.1221,-0.1215,-0.1253,-0.121,-0.1235,-0.1236,-0.1236,-0.133,-0.135,-0.1418,-0.1297,-0.1299,-0.13,0,-0.1182,-0.1194,-0.1247,-0.1247,-0.1256,-0.1278,-0.1292,-0.1308,-0.1313,-0.1308,-0.1316,-0.1298,-0.1326,-0.129,-0.1328,-0.1299,-0.1309,-0.1308,-0.131,-0.1313,-0.1273,-0.1337,-0.1439,-0.145,-0.1314,-0.1313,-0.1312,0,-0.1252,-0.1281,-0.1316,-0.1321,-0.1323,-0.134,-0.1341,-0.1344,-0.1354,-0.1365,-0.1372,-0.1386,-0.1394,-0.1405,-0.1391,-0.1366,-0.1432,-0.1395,-0.1429,-0.143,-0.1445,-0.1445,-0.1552,-0.145,-0.1449,-0.1449,-0.1449,0,-0.1332,-0.1365,-0.1348,-0.137,-0.1407,-0.1389,-0.1426,-0.1423,-0.1426,-0.1447,-0.1422,-0.1443,-0.1423,-0.1441,-0.143,-0.1465,-0.1468,-0.1465,-0.1462,-0.1468,-0.1468,-0.1474,-0.147,-0.1452,-0.1451,-0.1451,-0.145,0,-0.1416,-0.1406,-0.1443,-0.1442,-0.1442,-0.1469,-0.1468,-0.1488,-0.1481,-0.1508,-0.1514,-0.1503,-0.1523,-0.1511,-0.1531,-0.1523,-0.1569,-0.1558,-0.1568,-0.1565,-0.1601,-0.1599,-0.1717,-0.1732,-0.1619,-0.162,-0.1621,0,-0.1469,-0.1494,-0.1496,-0.1509,-0.1512,-0.1532,-0.1543,-0.1526,-0.1538,-0.1546,-0.1566,-0.1584,-0.1598,-0.1632,-0.1626,-0.1641,-0.1632,-0.1672,-0.1634,-0.164,-0.1634,-0.1633,-0.1636,-0.1681,-0.1682,-0.1683,-0.1684,0,-0.1564,-0.1557,-0.1574,-0.159,-0.1604,-0.1615,-0.1624,-0.1635,-0.1618,-0.1633,-0.1654,-0.1665,-0.1686,-0.1705,-0.1718,-0.1719,-0.1699,-0.1696,-0.1705,-0.1712,-0.1717,-0.1716,-0.159,-0.1693,-0.1693,-0.1692,-0.1691,-0.1691,-0.1634,-0.1656,-0.1661,-0.1681,-0.1686,-0.1695,-0.1715,-0.1711,-0.1728,-0.1745,-0.1733,-0.1759,-0.1763,-0.1779,-0.1782,-0.1802,-0.1785,-0.1798,-0.1801,-0.1805,-0.1811,-0.1713,-0.1804,-0.1803,-0.1803,-0.1803,-0.1803,0,-0.1729,-0.1731,-0.1749,-0.1763,-0.1779,-0.1759,-0.1768,-0.1783,-0.1805,-0.1811,-0.1826,-0.1851,-0.1869,-0.1864,-0.1881,-0.1897,-0.1889,-0.1902,-0.1901,-0.1902,-0.1824,-0.1815,-0.1909,-0.1909,-0.1909,-0.1909,-0.1909,-0.1909,-0.178,-0.1816,-0.1811,-0.1849,-0.1851,-0.1876,-0.1883,-0.1891,-0.1896,-0.1925,-0.1941,-0.1938,-0.194,-0.1956,-0.1972,-0.197,-0.1978,-0.1996,-0.1991,-0.1918,-0.1907,-0.1898,-0.1889,-0.1997,-0.1997,-0.2067,-0.2068,-0.2068]}]]